Location: Ariel
(45.9570°N, 122.5700°W)
Time: 01:27:18
(UTC-07:00)

Transit 2A - Visible Passes

Search period start: 24 July 2019 00:00
Search period end: 03 August 2019 00:00
Orbit: 595 x 964 km, 66.7° (Epoch: 24 July)

Date Brightness Start Highest point End Pass type
(mag) Time Alt. Az. Time Alt. Az. Time Alt. Az.
24 Jul 8.0 00:58:57 10° NNW 01:03:17 24° NE 01:07:16 10° E visible
24 Jul 5.7 02:41:52 10° NW 02:47:02 66° WSW 02:48:06 50° S visible
25 Jul 8.3 00:25:02 10° NNW 00:28:51 19° NNE 00:32:24 10° E visible
25 Jul 5.7 02:07:41 10° NNW 02:12:57 86° ENE 02:14:01 56° SE visible
25 Jul 7.8 03:53:07 10° WNW 03:54:26 12° W 03:54:26 12° W visible
25 Jul 8.4 23:51:12 10° N 23:54:22 15° NNE 23:57:22 10° ENE visible
26 Jul 6.2 01:33:35 10° NNW 01:38:48 61° NE 01:40:03 45° ESE visible
26 Jul 7.5 03:17:55 10° WNW 03:20:29 18° W 03:20:29 18° W visible
26 Jul 8.5 23:17:26 10° N 23:19:49 13° NNE 23:22:07 10° NE visible
27 Jul 6.8 00:59:32 10° NNW 01:04:34 44° NE 01:06:10 33° E visible
27 Jul 7.1 02:43:14 10° NW 02:46:37 26° W 02:46:37 26° W visible
27 Jul 8.7 22:43:56 10° N 22:45:14 11° NNE 22:46:31 10° NNE visible
28 Jul 7.3 00:25:32 10° NNW 00:30:17 32° NE 00:32:23 23° E visible
28 Jul 6.6 02:08:49 10° NW 02:12:50 38° W 02:12:50 38° W visible
28 Jul 7.7 23:51:34 10° NNW 23:55:56 25° NE 23:58:40 16° E visible
29 Jul 6.0 01:34:31 10° NW 01:39:07 57° W 01:39:07 57° W visible
29 Jul 8.0 23:17:40 10° NNW 23:21:31 20° NE 23:25:00 10° E visible
30 Jul 5.7 01:00:20 10° NNW 01:05:27 87° WNW 01:05:27 87° WNW visible
30 Jul 8.2 22:43:49 10° N 22:47:02 16° NNE 22:50:04 10° ENE visible
31 Jul 5.9 00:26:13 10° NNW 00:31:23 66° NE 00:31:50 62° E visible
31 Jul 7.9 02:10:44 10° WNW 02:12:18 15° W 02:12:18 15° W visible
31 Jul 8.3 22:10:04 10° N 22:12:30 13° NNE 22:14:51 10° NE visible
31 Jul 6.5 23:52:10 10° NNW 23:57:11 46° NE 23:58:16 39° E visible
01 Aug 7.4 01:35:59 10° NW 01:38:44 22° W 01:38:44 22° W visible
01 Aug 8.5 21:36:33 10° N 21:37:56 11° NNE 21:39:17 10° NE visible
01 Aug 7.0 23:18:09 10° NNW 23:22:54 34° NE 23:24:45 25° E visible
02 Aug 6.9 01:01:30 10° NW 01:05:12 34° W 01:05:12 34° W visible
02 Aug 7.5 22:44:11 10° NNW 22:48:33 26° NE 22:51:15 16° E visible
